Regional Weather Roundup
Issued by NWS

Home | Current Version | Previous Version | Graphics & Text | Print | Product List | Glossary On
Versions: 1 2 3 4 5 6 7 8 9 10 11 12 13 14 15 16 17 18 19 20 21 22 23 24 25 26 27 28 29 30 31 32 33 34 35 36 37 38 39 40 41 42 43 44 45 46 47 48 49 50
000
ASUS43 KOAX 291902
RWRNE

WEATHER ROUNDUP FOR NEBRASKA
NATIONAL WEATHER SERVICE OMAHA NE
200 PM CDT SUN MAY 29 2016

NOTES: SATELLITE DATA IS BEING USED TO AUGMENT CLOUD COVER ABOVE
       12000 FEET.
       "FAIR" INDICATES FEW OR NO CLOUDS BELOW 12,000 FEET WITH NO
       SIGNIFICANT WEATHER AND/OR OBSTRUCTIONS TO VISIBILITY.

  * THESE STATIONS DO NOT REPORT WEATHER SUCH AS RAIN...SNOW OR FOG.

NEZ001>004-019>022-054>056-292000-
NEBRASKA PANHANDLE

CITY           SKY/WX    TMP DP  RH WIND       PRES   REMARKS
SCOTTSBLUFF    SUNNY     78  41  26 W5        30.08F
ALLIANCE       SUNNY     74  48  39 SW8       30.07F
CHADRON        SUNNY     76  48  37 VRB3      30.05F
SIDNEY         SUNNY     77  43  29 S8        30.11F
$$

NEZ057>060-069>072-079>082-292000-
SOUTHWEST NEBRASKA

CITY           SKY/WX    TMP DP  RH WIND       PRES   REMARKS
NORTH PLATTE   SUNNY     79  56  45 SE5       30.07F
IMPERIAL       SUNNY     78  53  41 MISG      30.07F
LEXINGTON      SUNNY     78  55  43 CALM      30.07F
MCCOOK         SUNNY     81  56  42 SW7       30.06F
$$

NEZ005>010-023>029-035>040-094-292000-
NORTH CENTRAL NEBRASKA

CITY           SKY/WX    TMP DP  RH WIND       PRES   REMARKS
VALENTINE      MOSUNNY   74  48  39 SE5       30.08F
BROKEN BOW     SUNNY     78  57  48 S7        30.08F
ORD            SUNNY     80  52  37 VRB3      30.06F
$$

NEZ041-046>049-061>064-073>077-083>087-292000-
SOUTH CENTRAL NEBRASKA

CITY           SKY/WX    TMP DP  RH WIND       PRES   REMARKS
GRAND ISLAND   SUNNY     80  53  39 VRB3      30.08F
HASTINGS       SUNNY     82  57  42 S9        30.07F
KEARNEY *      SUNNY     81  54  39 SW8       30.08F
YORK           SUNNY     79  57  47 W6        30.08F
$$

NEZ011>018-030>034-042>045-292000-
NORTHEAST NEBRASKA

CITY           SKY/WX    TMP DP  RH WIND       PRES   REMARKS
NORFOLK        SUNNY     77  54  44 CALM      30.07F
ALBION         SUNNY     78  53  43 CALM      30.08S
BLAIR          SUNNY     79  56  44 SW9       30.08S
FREMONT        SUNNY     79  61  53 S3        30.07F
TEKAMAH          N/A    N/A N/A N/A MISG      30.06F
$$

NEZ050>053-065>068-078-088>093-292000-
SOUTHEAST NEBRASKA

CITY           SKY/WX    TMP DP  RH WIND       PRES   REMARKS
LINCOLN        SUNNY     84  56  38 W10       30.06F
OMAHA EPPLEY   MOSUNNY   82  58  43 W5        30.06F
FALLS CITY     SUNNY     83  61  47 W15       30.07F
PLATTSMOUTH    SUNNY     83  60  45 W10       30.06F
$$

NEZ044-045-051>053-067-292000-
OMAHA AREA

CITY           SKY/WX    TMP DP  RH WIND       PRES   REMARKS
OMAHA EPPLEY   MOSUNNY   82  58  43 W5        30.06F
BLAIR          SUNNY     79  56  44 SW9       30.08S
FREMONT        SUNNY     79  61  53 S3        30.07F
PLATTSMOUTH    SUNNY     83  60  45 W10       30.06F
$$




USA.gov is the U.S. government's official web portal to all federal, state and local government web resources and services.